Satellite-Ground Cal/Val Region Overpasses Predictions

Prediction of Satellite NPP Overpassing Cal/Val Region: PacNW

Region Location: (Latitude: 10.00, Longitude: 139.50) to (Latitude: 22.70, Longitude: 165.60).

Table of predicted overpasses for the next 14.0 days since TLE Epoch: 12/16/2014
Interval Starting Time Starting Location Ending Time Ending Location
1 12/17/2014 02:18:12 ( 19.21, 165.59) 12/17/2014 02:19:11 ( 22.67, 164.74)
2 12/17/2014 03:57:06 ( 10.06, 142.35) 12/17/2014 04:00:31 ( 22.09, 139.51)
3 12/17/2014 14:47:28 ( 22.65, 164.93) 12/17/2014 14:51:03 ( 10.02, 161.94)
4 12/17/2014 16:28:57 ( 22.69, 139.57) 12/17/2014 16:29:01 ( 22.46, 139.51)
5 12/18/2014 03:38:02 ( 10.04, 147.12) 12/18/2014 03:41:37 ( 22.66, 144.12)
6 12/18/2014 16:09:55 ( 22.65, 144.32) 12/18/2014 16:13:30 ( 10.02, 141.33)
7 12/19/2014 03:18:59 ( 10.03, 151.88) 12/19/2014 03:22:34 ( 22.65, 148.89)
8 12/19/2014 15:50:51 ( 22.66, 149.08) 12/19/2014 15:54:26 ( 10.03, 146.09)
9 12/20/2014 02:59:55 ( 10.02, 156.64) 12/20/2014 03:03:30 ( 22.64, 153.65)
10 12/20/2014 15:31:48 ( 22.67, 153.84) 12/20/2014 15:35:23 ( 10.04, 150.85)
11 12/21/2014 02:40:52 ( 10.01, 161.40) 12/21/2014 02:44:28 ( 22.69, 158.39)
12 12/21/2014 15:12:44 ( 22.68, 158.60) 12/21/2014 15:16:19 ( 10.05, 155.61)
13 12/22/2014 02:22:30 ( 12.47, 165.59) 12/22/2014 02:25:24 ( 22.68, 163.15)
14 12/22/2014 04:03:18 ( 10.01, 140.78) 12/22/2014 04:04:52 ( 15.54, 139.51)
15 12/22/2014 14:53:41 ( 22.68, 163.36) 12/22/2014 14:57:17 ( 10.00, 160.35)
16 12/23/2014 03:44:15 ( 10.01, 145.54) 12/23/2014 03:47:51 ( 22.69, 142.54)
17 12/23/2014 14:37:38 ( 12.12, 165.60) 12/23/2014 14:38:14 ( 10.01, 165.11)
18 12/23/2014 16:16:07 ( 22.68, 142.74) 12/23/2014 16:19:42 ( 10.05, 139.75)
19 12/24/2014 03:25:11 ( 10.00, 150.30) 12/24/2014 03:28:47 ( 22.68, 147.30)
20 12/24/2014 15:57:04 ( 22.68, 147.50) 12/24/2014 16:00:39 ( 10.06, 144.51)
21 12/25/2014 03:06:08 ( 10.00, 155.06) 12/25/2014 03:09:44 ( 22.68, 152.06)
22 12/25/2014 15:38:01 ( 22.68, 152.26) 12/25/2014 15:41:36 ( 10.06, 149.27)
23
